Location: Atherton
(17.2661°S, 145.4859°E)
Time: 06:09:24
(UTC+10:00)

S-56A Canister/Altair - Visible Passes

Search period start: 18 June 2025 00:00
Search period end: 28 June 2025 00:00
Orbit: 632 x 2486 km, 38.9° (Epoch: 16 June)

Date Brightness Start Highest point End Pass type
(mag) Time Alt. Az. Time Alt. Az. Time Alt. Az.
23 Jun 9.6 19:32:14 10° S 19:32:22 10° S 19:32:22 10° S visible
24 Jun 9.2 18:58:28 10° S 18:59:56 12° SSE 18:59:56 12° SSE visible
26 Jun 9.0 19:50:57 10° SW 19:52:36 22° SSW 19:52:36 22° SSW visible
27 Jun 7.9 19:16:40 10° SSW 19:20:28 34° SSE 19:20:28 34° SSE visible
